{"data":{"norad_id":40315,"intl_designator":"2014-075A","name":"COSMOS 2501 (702K)","alt_names":[],"object_type":"PAYLOAD","status":"ACTIVE","operator":null,"country":"CIS","launch_date":"2014-11-30","launch_site_code":"PLMSC","launch_vehicle":null,"mission":null,"orbit_class":"UNKNOWN","rcs_meters":18.8988,"size_class":null,"mass_kg":null,"dimensions":null,"purposes":["earth_obs","nav"],"wikipedia_slug":null,"has_3d_model":false,"image_url":null,"decayed_at":null,"tle_current":{"epoch":"2026-05-24T08:50:39.037632Z","epoch_age_seconds":129616,"freshness":"FRESH","line1":"1 40315U 14075A   26144.36850738  .00000041  00000+0  00000+0 0  9990","line2":"2 40315  63.6148 191.1969 0022388 211.5449 148.3894  2.13101372 89349","mean_motion":2.13101372,"eccentricity":0.0022388,"inclination_deg":63.6148,"raan_deg":191.1969,"arg_perigee_deg":211.5449,"mean_anomaly_deg":148.3894,"bstar":0,"rev_number":8934,"period_min":675.7347390518,"perigee_km":19072.830064211,"apogee_km":19187.045018778,"semimajor_km":25508.074541494,"source":"CELESTRAK","updated_at":"2026-05-25T13:38:23.894380Z"}}}